Tracking 19576 objects as of 18-Feb-2019
HD Live streaming from Space Station
objects crossing your sky now

EUTELSAT 1-F2 (ECS 2)

Track EUTELSAT 1-F2 (ECS 2) now!
EUTELSAT 1-F2 (ECS 2) is classified as:


NORAD ID: 15158
Int'l Code: 1984-081A
Perigee: 36,200.8 km
Apogee: 36,224.6 km
Inclination: 15.2 °
Period: 1,457.6 minutes
Semi major axis: 42583 km
RCS: 5.0119 m2 (large)
Launch date: August 4, 1984
Source: European Telecommunications Satellite Organization (EUTE)
Launch site: FRENCH GUIANA (FRGUI)
aabbcc
Your satellite tracking list
Your tracking list is empty




NASA's NSSDC Master Catalog

Two Line Element Set (TLE):
1 15158U 84081A   19047.25807104 -.00000102  00000-0  00000+0 0  9992
2 15158  15.2170 354.4728 0002799 156.6226  13.1163  0.98795654 90845
Source of the keplerian elements: AFSPC